Regional Weather Roundup
Issued by NWS

Home | Current Version | Previous Version | Text Only | Print | Product List | Glossary Off
Versions: 1 2 3 4 5 6 7 8 9 10 11 12 13 14 15 16 17 18 19 20 21 22 23 24 25 26 27 28 29 30 31 32 33 34 35 36 37 38 39 40 41 42 43 44 45 46 47 48 49 50

000
ASUS43 KDTX 010201
RWRMI
MICHIGAN HOURLY REGIONAL WEATHER ROUNDUP
NATIONAL WEATHER SERVICE DETROIT/PONTIAC MI
900 PM EST SAT FEB 28 2015

NOTE: "FAIR" INDICATES FEW OR NO CLOUDS BELOW 12,000 FEET WITH NO
SIGNIFICANT WEATHER AND/OR OBSTRUCTION TO VISIBILITY.

MIZ047>049-052>055-059>063-066>070-074>076-081>083-010300-
SOUTHEAST LOWER MICHIGAN

CITY           SKY/WX    TMP DP  RH WIND       PRES   REMARKS
ADRIAN         CLOUDY    15   1  53 CALM      30.57F
ALMA           PTCLDY     8  -1  68 CALM      30.55F
ANN ARBOR      MOCLDY    14   2  58 VRB3      30.57F
BAD AXE        CLEAR      9   2  71 S5        30.58S WCI   1
CARO           CLEAR      4  -4  68 CALM      30.57S
DETROIT CITY   PTCLDY    16   2  54 SE3       30.60F
DETROIT        CLOUDY    15   4  61 E3        30.60F
FLINT          PTCLDY    17   0  47 S5        30.56F WCI  10
GROSSE ILE     MOCLDY    12   3  67 E5        30.59F WCI   4
HILLSDALE      CLOUDY    15   1  54 SE5       30.52S WCI   8
HOWELL         MOCLDY    15   2  57 SE6       30.55F WCI   7

CITY           SKY/WX    TMP DP  RH WIND       PRES   REMARKS
JACKSON        CLOUDY    15   1  53 S7        30.54F WCI   5
LAMBERTVILLE   CLOUDY    18   5  57 CALM      30.59F
LANSING        MOCLDY    17   1  49 SE10      30.54F WCI   5
LAPEER         FAIR      12   3  66 SE5       30.57F WCI   4
MASON          CLOUDY    15   2  57 S5        30.54F WCI   7
MONROE         MOCLDY    16   3  57 E3        30.57F
MT. CLEMENS    PTCLDY     6  -1  74 S5        30.59F WCI  -3
PONTIAC        PTCLDY    14   3  61 SE7       30.54F WCI   4
PORT HOPE        N/A     14   1  56 VRB5      30.57F WCI   6
PORT HURON     PTCLDY     9   1  72 CALM      30.61F
TRI CITIES     CLEAR     17   0  47 S5        30.57S WCI  10
TROY           PTCLDY    17   2  51 CALM      30.60F
SAGINAW HB     PTCLDY    12   1  62 S5        30.57F WCI   4
$$
MIZ043>046-050>051-056>058-064>065-071>073-077>080-010300-
SOUTHWEST LOWER MICHIGAN

CITY           SKY/WX    TMP DP  RH WIND       PRES   REMARKS
BATTLE CREEK   CLOUDY    18   3  52 SE9       30.54S WCI   7
BENTON HARBOR  CLOUDY    18   4  54 S5        30.56R WCI  11
BIG RAPIDS     PTCLDY    12   2  64 CALM      30.50F
COLDWATER      CLOUDY    16   2  54 SE6       30.54S WCI   7
FREMONT        FAIR      11   2  68 CALM      30.52F
HOLLAND        CLOUDY    15   4  61 CALM      30.55S
GRAND RAPIDS   CLOUDY    16   0  49 S6        30.54F WCI   7
IONIA          FAIR      15   2  56 S7        30.53F WCI   5
KALAMAZOO      CLOUDY    18   2  49 S6        30.54S WCI  10
LUDINGTON      CLEAR     16   8  71 S5        30.53F WCI   8
MARSHALL       CLOUDY    15   2  57 SE5       30.54S WCI   7
MOUNT PLEASANT CLEAR     15  -1  49 S3        30.54F
MUSKEGON       CLOUDY    13   5  70 CALM      30.54F
SOUTH HAVEN    CLOUDY    20   1  44 S3        30.55S
$$
MIZ016>042-010300-
NORTHERN LOWER MICHIGAN

CITY           SKY/WX    TMP DP  RH WIND       PRES   REMARKS
ALPENA         CLEAR     18   4  54 S12       30.51F WCI   5
BEAVER ISLAND  CLEAR     17   9  72 SW9G17    30.47F WCI   5
BELLAIRE       CLEAR      8   3  78 CALM      30.51F
CADILLAC       CLEAR     12   1  60 S5        30.46F WCI   4
CHARLEVOIX     CLEAR     10   6  84 CALM      30.52F
FRANKFORT      MOCLDY    16  10  76 S8        30.51F WCI   5
GAYLORD        CLEAR     11   0  61 SW3       30.45F
GRAYLING       CLEAR     14   1  56 S5        30.48F WCI   6
HARBOR SPRINGS CLEAR     11   7  86 CALM      30.49F
HOUGHTON LAKE  CLEAR     13   2  61 S8        30.50S WCI   2
MANISTEE       CLEAR     14   5  67 S5        30.52F WCI   6
OSCODA         CLEAR     14   2  59 S8        30.55F WCI   2
PELLSTON       CLEAR     11   6  81 W3        30.49F
ROGERS CITY    CLEAR      8   5  89 CALM      30.51F
TRAVERSE CITY  CLEAR     16   5  62 SW5       30.50F WCI   9
$$
MIZ007>008-015-010300-
EASTERN UPPER MICHIGAN

CITY           SKY/WX    TMP DP  RH WIND       PRES   REMARKS
KINROSS        CLEAR     12  10  92 S6        30.46F WCI   3
MACKINAC ISLAN CLEAR     14   8  75 SW7       30.47F WCI   4
NEWBERRY       CLEAR     13   9  83 S14G20    30.42F WCI  -2
S. S. MARIE    CLEAR     11   4  73 SE3       30.47F
MUNISING         N/A     15  -2  46 S9        30.40F WCI   3
$$
MIZ004>006-011>014-085-010300-
CENTRAL UPPER MICHIGAN

CITY           SKY/WX    TMP DP  RH WIND       PRES   REMARKS
MANISTIQUE     MOCLDY    20  13  74 SW9G16    30.43F WCI   9
ESCANABA       CLEAR     14   0  52 S8        30.45F WCI   3
MENOMINEE      CLEAR     14   0  52 SW9       30.45F WCI   2
SAWYER-GWINN   CLEAR     14   0  52 S13       30.34F WCI   0
$$
MIZ001>003-009>011-084-010300-
WESTERN UPPER MICHIGAN

CITY           SKY/WX    TMP DP  RH WIND       PRES   REMARKS
IRON MOUNTAIN  CLEAR     13  -3  49 S8        30.36F WCI   2
HOUGHTON       CLEAR     13  -4  46 SW5       30.28F WCI   5
COPPER HARBOR    N/A      7   2  80 SW7       30.30F WCI  -5
IRONWOOD       CLEAR     14  -2  48 S12       30.27S WCI   0
$$

ABBREVIATIONS USED IN REMARKS
   TC - TEMPERATURE IN CELSIUS
  WCI - WIND CHILL INDEX
   HX - HEAT INDEX
  VSB - VISIBILITY



USA.gov is the U.S. government's official web portal to all federal, state and local government web resources and services.